TimeCST,TemperatureF,Dew PointF,Humidity,Sea Level PressureIn,VisibilityMPH,Wind Direction,Wind SpeedMPH,Gust SpeedMPH,PrecipitationIn,Events,Conditions,WindDirDegrees,DateUTC
12:52 AM,26.1,23.0,88,30.26,7.0,Calm,Calm,-,N/A,,Clear,0,2013-01-08 06:52:00
1:52 AM,27.0,23.0,85,30.26,8.0,Calm,Calm,-,N/A,,Clear,0,2013-01-08 07:52:00
2:52 AM,27.0,23.0,85,30.26,7.0,Calm,Calm,-,N/A,,Clear,0,2013-01-08 08:52:00
3:52 AM,30.0,25.0,82,30.25,9.0,Calm,Calm,-,N/A,,Clear,0,2013-01-08 09:52:00
4:52 AM,28.9,25.0,85,30.26,8.0,SE,4.6,-,N/A,,Clear,140,2013-01-08 10:52:00
5:52 AM,30.9,26.1,82,30.28,10.0,SSE,5.8,-,N/A,,Clear,150,2013-01-08 11:52:00
6:52 AM,30.0,25.0,82,30.30,10.0,SE,6.9,-,N/A,,Clear,140,2013-01-08 12:52:00
7:52 AM,34.0,28.0,79,30.32,10.0,SSE,8.1,-,N/A,,Clear,150,2013-01-08 13:52:00
8:52 AM,39.0,30.9,73,30.34,10.0,SE,5.8,-,N/A,,Clear,140,2013-01-08 14:52:00
9:52 AM,41.0,32.0,70,30.34,10.0,SE,5.8,-,N/A,,Clear,140,2013-01-08 15:52:00
10:52 AM,46.9,33.1,59,30.30,10.0,South,8.1,-,N/A,,Clear,190,2013-01-08 16:52:00
11:52 AM,53.1,35.1,50,30.28,10.0,SSW,9.2,16.1,N/A,,Clear,210,2013-01-08 17:52:00
12:52 PM,55.0,35.1,47,30.25,10.0,SSE,8.1,-,N/A,,Clear,150,2013-01-08 18:52:00
1:52 PM,57.9,34.0,41,30.23,10.0,SSW,9.2,-,N/A,,Clear,200,2013-01-08 19:52:00
2:52 PM,57.9,34.0,41,30.23,10.0,South,9.2,-,N/A,,Clear,180,2013-01-08 20:52:00
3:52 PM,55.0,33.1,43,30.22,10.0,SSE,8.1,-,N/A,,Clear,160,2013-01-08 21:52:00
4:52 PM,52.0,33.1,49,30.23,10.0,SSE,3.5,-,N/A,,Clear,160,2013-01-08 22:52:00
5:52 PM,51.1,32.0,48,30.24,10.0,SSE,3.5,-,N/A,,Clear,160,2013-01-08 23:52:00
7:52 PM,46.9,33.1,59,30.22,10.0,Calm,Calm,-,N/A,,Clear,0,2013-01-09 01:52:00
8:52 PM,45.0,33.1,63,30.23,10.0,SE,4.6,-,N/A,,Clear,140,2013-01-09 02:52:00
9:52 PM,45.0,34.0,65,30.23,10.0,SE,4.6,-,N/A,,Clear,130,2013-01-09 03:52:00
10:52 PM,45.0,36.0,71,30.24,10.0,SSE,4.6,-,N/A,,Overcast,150,2013-01-09 04:52:00
11:52 PM,44.1,35.1,71,30.25,10.0,SSE,3.5,-,N/A,,Clear,160,2013-01-09 05:52:00